START_TIME,STEP,MOV.,M29,t_acc.,H22,t_acc.,H26,t_acc.,H30,t_acc.
1980-11-16 03:00:20.500 ,4,0,0.,24.0,0.,24.0,0.,24.0,0.,24.0
1980-11-16 03:00:44.500 ,5,1,0.,24.0,0.,24.0,0.,24.0,0.,24.0
1980-11-16 03:01:08.500 ,5,0,0.,24.0,0.,24.0,0.,24.0,0.,24.0
1980-11-16 03:01:32.500 ,6,1,0.,24.0,0.,24.0,0.,24.0,0.,24.0
1980-11-16 03:01:56.500 ,6,0,0.,24.0,0.,24.0,0.,24.0,0.,24.0
1980-11-16 03:02:20.500 ,7,1,0.,24.0,0.,24.0,0.,24.0,0.,24.0
1980-11-16 03:02:44.500 ,7,0,0.,24.0,0.,24.0,0.,24.0,0.,24.0
1980-11-16 03:03:08.500 ,7,1,0.,24.0,0.,24.0,0.,24.0,0.,24.0
1980-11-16 03:03:32.500 ,7,0,0.,24.0,0.,24.0,0.,24.0,0.,24.0
1980-11-16 03:03:56.500 ,6,1,0.,24.0,0.,24.0,0.,24.0,0.,24.0
1980-11-16 03:04:20.500 ,6,0,0.,24.0,0.,24.0,0.,24.0,0.,24.0
1980-11-16 03:04:44.500 ,5,1,0.,24.0,0.,24.0,0.,24.0,0.,24.0
1980-11-16 03:05:08.500 ,5,0,0.,24.0,0.,24.0,0.,24.0,0.,24.0
1980-11-16 03:05:32.500 ,4,1,0.,24.0,0.,24.0,0.,24.0,0.,24.0
1980-11-16 03:05:56.500 ,4,0,0.,24.0,0.,24.0,0.,24.0,0.,24.0
1980-11-16 03:06:20.500 ,3,1,0.,24.0,0.,24.0,0.,24.0,0.,24.0
1980-11-16 03:06:44.500 ,3,0,0.,24.0,0.,24.0,0.,24.0,0.,24.0
1980-11-16 03:07:08.500 ,2,1,0.,24.0,0.,24.0,0.,24.0,0.,24.0
1980-11-16 03:07:32.500 ,2,0,0.,24.0,0.,24.0,0.,24.0,0.,24.0
1980-11-16 03:07:56.500 ,1,1,0.,24.0,0.,24.0,0.,24.0,0.,24.0
1980-11-16 03:08:20.500 ,1,0,0.,24.0,0.,24.0,0.,24.0,0.,24.0
1980-11-16 03:08:44.500 ,0,1,0.,24.0,0.,24.0,0.,24.0,0.,24.0
1980-11-16 03:09:08.500 ,0,0,0.,24.0,0.,24.0,0.,24.0,0.,24.0
1980-11-16 03:09:32.500 ,0,1,0.,24.0,0.,24.0,0.,24.0,0.,24.0
1980-11-16 03:09:56.500 ,0,0,0.,24.0,0.,24.0,0.,24.0,0.,24.0
1980-11-16 03:10:20.500 ,1,1,0.,24.0,0.,24.0,0.,24.0,0.,24.0
1980-11-16 03:10:44.500 ,1,0,0.,24.0,0.,24.0,0.,24.0,0.,24.0
1980-11-16 03:11:08.500 ,2,1,0.,24.0,0.,24.0,0.,24.0,0.,24.0
1980-11-16 03:11:32.500 ,2,0,0.,24.0,0.,24.0,0.,24.0,0.,24.0
1980-11-16 03:11:56.500 ,3,1,0.,24.0,0.,24.0,0.,24.0,0.,24.0
1980-11-16 03:12:20.500 ,3,0,0.,24.0,0.,24.0,0.,24.0,0.,24.0
1980-11-16 03:12:44.500 ,4,1,0.,24.0,0.,24.0,0.,24.0,0.,24.0
1980-11-16 03:13:08.500 ,4,0,0.,24.0,0.,24.0,0.,24.0,0.,24.0
1980-11-16 03:13:32.500 ,5,1,0.,24.0,0.,24.0,0.,24.0,0.,24.0
1980-11-16 03:13:56.500 ,5,0,0.,24.0,0.,24.0,0.,24.0,0.,24.0
1980-11-16 03:14:20.500 ,6,1,0.,24.0,0.,24.0,0.,24.0,0.,24.0
1980-11-16 03:14:44.500 ,6,0,0.,24.0,0.,24.0,0.,24.0,0.,24.0
1980-11-16 03:15:08.500 ,7,1,0.,24.0,0.,24.0,0.,24.0,0.,24.0
1980-11-16 03:15:32.500 ,7,0,0.,24.0,0.,24.0,0.,24.0,0.,24.0
1980-11-16 03:15:56.500 ,7,1,0.,24.0,0.,24.0,0.,24.0,0.,24.0
1980-11-16 03:16:20.500 ,7,0,0.,24.0,0.,24.0,0.,24.0,0.,24.0
1980-11-16 03:16:44.500 ,6,1,0.,24.0,0.,24.0,0.,24.0,0.,24.0
1980-11-16 03:17:08.500 ,6,0,0.,24.0,0.,24.0,0.,24.0,0.,24.0
1980-11-16 03:17:32.500 ,5,1,0.,24.0,0.,24.0,0.,24.0,0.,24.0
1980-11-16 03:17:56.500 ,5,0,0.,24.0,0.,24.0,0.,24.0,0.,24.0
1980-11-16 03:18:20.500 ,4,1,0.,24.0,0.,24.0,0.,24.0,0.,24.0
1980-11-16 03:18:44.500 ,4,0,0.,24.0,0.,24.0,0.,24.0,0.,24.0
1980-11-16 03:19:08.500 ,3,1,0.,24.0,0.,24.0,0.,24.0,0.,24.0
1980-11-16 03:19:32.500 ,3,0,0.,24.0,0.,24.0,0.,24.0,0.,24.0
1980-11-16 03:19:56.500 ,2,1,0.,24.0,0.,24.0,0.,24.0,0.,24.0
1980-11-16 03:20:20.500 ,2,0,0.,24.0,0.,24.0,0.,24.0,0.,24.0
1980-11-16 03:20:44.500 ,1,1,0.,24.0,0.,24.0,0.,24.0,0.,24.0
1980-11-16 03:21:08.500 ,1,0,0.,24.0,0.,24.0,0.,24.0,0.,24.0
1980-11-16 03:21:32.500 ,0,1,0.,24.0,0.,24.0,0.,24.0,0.,24.0
1980-11-16 03:21:56.500 ,0,0,0.,24.0,0.,24.0,0.,24.0,0.,24.0
1980-11-16 03:22:20.500 ,0,1,0.,24.0,0.,24.0,0.,24.0,0.,24.0
1980-11-16 03:22:44.500 ,0,0,0.,24.0,0.,24.0,0.,24.0,0.,24.0
1980-11-16 03:23:08.500 ,1,1,0.,24.0,0.,24.0,0.,24.0,0.,24.0
1980-11-16 03:23:32.500 ,1,0,0.,24.0,0.,24.0,0.,24.0,0.,24.0
1980-11-16 03:23:56.500 ,2,1,0.,24.0,0.,24.0,0.,24.0,0.,24.0
1980-11-16 03:24:20.500 ,2,0,0.,24.0,0.,24.0,0.,24.0,0.,24.0
1980-11-16 03:24:44.500 ,3,1,0.,24.0,0.,24.0,0.,24.0,0.,24.0
1980-11-16 03:25:08.500 ,3,0,1.,24.0,0.,24.0,0.,24.0,0.,24.0
1980-11-16 03:25:32.500 ,4,1,0.,24.0,0.,24.0,0.,24.0,0.,24.0
1980-11-16 03:25:56.500 ,4,0,0.,24.0,0.,24.0,0.,24.0,0.,24.0
1980-11-16 03:26:20.500 ,5,1,0.,24.0,0.,24.0,0.,24.0,0.,24.0
1980-11-16 03:26:44.500 ,5,0,1.,24.0,0.,24.0,0.,24.0,0.,24.0
1980-11-16 03:27:08.500 ,6,1,0.,24.0,0.,24.0,0.,24.0,0.,24.0
1980-11-16 03:27:32.500 ,6,0,0.,24.0,0.,24.0,0.,24.0,0.,24.0
1980-11-16 03:27:56.500 ,7,1,0.,24.0,0.,24.0,0.,24.0,0.,24.0
1980-11-16 03:28:20.500 ,7,0,0.,24.0,0.,24.0,0.,24.0,0.,24.0
1980-11-16 03:28:44.500 ,7,1,0.,24.0,0.,24.0,0.,24.0,0.,24.0
1980-11-16 03:29:08.500 ,7,0,0.,24.0,0.,24.0,0.,24.0,0.,24.0
1980-11-16 03:29:32.500 ,6,1,0.,24.0,0.,24.0,0.,24.0,0.,24.0
1980-11-16 03:29:56.500 ,6,0,0.,24.0,0.,24.0,0.,24.0,0.,24.0
1980-11-16 03:30:20.500 ,5,1,0.,24.0,0.,24.0,0.,24.0,0.,24.0
1980-11-16 03:30:44.500 ,5,0,0.,24.0,0.,24.0,0.,24.0,0.,24.0
1980-11-16 03:31:08.500 ,4,1,0.,24.0,0.,24.0,0.,24.0,0.,24.0
1980-11-16 03:31:32.500 ,4,0,,0,,0,,0,,0
1980-11-16 03:31:56.500 ,3,1,0.,24.0,0.,24.0,0.,24.0,0.,24.0
1980-11-16 03:32:20.500 ,3,0,0.,24.0,0.,24.0,0.,24.0,0.,24.0
1980-11-16 03:32:44.500 ,2,1,0.,24.0,0.,24.0,0.,24.0,0.,24.0
1980-11-16 03:33:08.500 ,2,0,0.,24.0,0.,24.0,0.,24.0,0.,24.0
1980-11-16 03:33:32.500 ,1,1,0.,24.0,0.,24.0,0.,24.0,0.,24.0
1980-11-16 03:33:56.500 ,1,0,0.,24.0,0.,24.0,0.,24.0,0.,24.0
1980-11-16 03:34:20.500 ,0,1,0.,24.0,0.,24.0,0.,24.0,0.,24.0
1980-11-16 03:34:44.500 ,0,0,0.,24.0,0.,24.0,0.,24.0,0.,24.0
1980-11-16 03:35:08.500 ,0,1,0.,24.0,0.,24.0,0.,24.0,0.,24.0
1980-11-16 03:35:32.500 ,0,0,0.,24.0,0.,24.0,0.,24.0,0.,24.0
1980-11-16 03:35:56.500 ,1,1,0.,24.0,0.,24.0,0.,24.0,0.,24.0
1980-11-16 03:36:20.500 ,1,0,0.,24.0,0.,24.0,0.,24.0,0.,24.0
1980-11-16 03:36:44.500 ,2,1,0.,24.0,0.,24.0,0.,24.0,0.,24.0
1980-11-16 03:37:08.500 ,2,0,0.,24.0,0.,24.0,0.,24.0,0.,24.0
1980-11-16 03:37:32.500 ,3,1,0.,24.0,0.,24.0,0.,24.0,0.,24.0
1980-11-16 03:37:56.500 ,3,0,0.,24.0,0.,24.0,0.,24.0,0.,24.0
1980-11-16 03:38:20.500 ,4,1,0.,24.0,0.,24.0,0.,24.0,0.,24.0
1980-11-16 03:38:44.500 ,4,0,0.,24.0,0.,24.0,0.,24.0,0.,24.0
1980-11-16 03:39:08.500 ,5,1,0.,24.0,0.,24.0,0.,24.0,0.,24.0
1980-11-16 03:39:32.500 ,5,0,0.,24.0,0.,24.0,0.,24.0,0.,24.0
1980-11-16 03:39:56.500 ,6,1,0.,24.0,0.,24.0,0.,24.0,0.,24.0
1980-11-16 03:40:20.500 ,6,0,0.,24.0,0.,24.0,0.,24.0,0.,24.0
1980-11-16 03:40:44.500 ,7,1,0.,24.0,0.,24.0,0.,24.0,0.,24.0
1980-11-16 03:41:08.500 ,7,0,0.,24.0,0.,24.0,0.,24.0,0.,24.0
1980-11-16 03:41:32.500 ,7,1,0.,24.0,0.,24.0,0.,24.0,0.,24.0
1980-11-16 03:41:56.500 ,7,0,0.,24.0,0.,24.0,0.,24.0,0.,24.0
1980-11-16 03:42:20.500 ,6,1,0.,24.0,0.,24.0,0.,24.0,0.,24.0
1980-11-16 03:42:44.500 ,6,0,0.,24.0,0.,24.0,0.,24.0,0.,24.0
1980-11-16 03:43:08.500 ,5,1,0.,24.0,0.,24.0,0.,24.0,0.,24.0
1980-11-16 03:43:32.500 ,5,0,0.,24.0,0.,24.0,0.,24.0,0.,24.0
1980-11-16 03:43:56.500 ,4,1,0.,24.0,0.,24.0,0.,24.0,0.,24.0
1980-11-16 03:44:20.500 ,4,0,0.,24.0,0.,24.0,0.,24.0,0.,24.0
1980-11-16 03:44:44.500 ,3,1,0.,24.0,0.,24.0,0.,24.0,0.,24.0
1980-11-16 03:45:08.500 ,3,0,0.,24.0,0.,24.0,0.,24.0,0.,24.0
1980-11-16 03:45:32.500 ,2,1,0.,24.0,0.,24.0,0.,24.0,0.,24.0
1980-11-16 03:45:56.500 ,2,0,0.,24.0,0.,24.0,0.,24.0,0.,24.0
1980-11-16 03:46:20.500 ,1,1,1.,24.0,0.,24.0,0.,24.0,0.,24.0
1980-11-16 03:46:44.500 ,1,0,0.,24.0,0.,24.0,0.,24.0,1.,24.0
1980-11-16 03:47:08.500 ,0,1,0.,24.0,0.,24.0,0.,24.0,0.,24.0
1980-11-16 03:47:32.500 ,0,0,0.,24.0,0.,24.0,0.,24.0,0.,24.0
1980-11-16 03:47:56.500 ,0,1,0.,24.0,0.,24.0,0.,24.0,0.,24.0
1980-11-16 03:48:20.500 ,0,0,0.,24.0,0.,24.0,0.,24.0,0.,24.0
1980-11-16 03:48:44.500 ,1,1,0.,24.0,0.,24.0,0.,24.0,0.,24.0
1980-11-16 03:49:08.500 ,1,0,0.,24.0,0.,24.0,0.,24.0,0.,24.0
1980-11-16 03:49:32.500 ,2,1,0.,24.0,0.,24.0,0.,24.0,0.,24.0
1980-11-16 03:49:56.500 ,2,0,0.,24.0,0.,24.0,0.,24.0,0.,24.0
1980-11-16 03:50:20.500 ,3,1,0.,24.0,0.,24.0,0.,24.0,0.,24.0
1980-11-16 03:50:44.500 ,3,0,0.,24.0,0.,24.0,0.,24.0,0.,24.0
1980-11-16 03:51:08.500 ,4,1,0.,24.0,0.,24.0,0.,24.0,0.,24.0
1980-11-16 03:51:32.500 ,4,0,0.,24.0,0.,24.0,0.,24.0,0.,24.0
1980-11-16 03:51:56.500 ,5,1,0.,24.0,0.,24.0,0.,24.0,0.,24.0
1980-11-16 03:52:20.500 ,5,0,0.,24.0,0.,24.0,0.,24.0,0.,24.0
1980-11-16 03:52:44.500 ,6,1,0.,24.0,0.,24.0,0.,24.0,0.,24.0
1980-11-16 03:53:08.500 ,6,0,0.,24.0,0.,24.0,0.,24.0,0.,24.0
1980-11-16 03:53:32.500 ,7,1,0.,24.0,0.,24.0,0.,24.0,0.,24.0
1980-11-16 03:53:56.500 ,7,0,0.,24.0,0.,24.0,0.,24.0,0.,24.0
1980-11-16 03:54:20.500 ,7,1,0.,24.0,0.,24.0,0.,24.0,0.,24.0
1980-11-16 03:54:44.500 ,7,0,0.,24.0,0.,24.0,0.,24.0,0.,24.0
1980-11-16 03:55:08.500 ,6,1,0.,24.0,0.,24.0,0.,24.0,0.,24.0
1980-11-16 03:55:32.500 ,6,0,0.,24.0,0.,24.0,0.,24.0,0.,24.0
1980-11-16 03:55:56.500 ,5,1,0.,24.0,0.,24.0,0.,24.0,0.,24.0
1980-11-16 03:56:20.500 ,5,0,0.,24.0,0.,24.0,0.,24.0,0.,24.0
1980-11-16 03:56:44.500 ,4,1,0.,24.0,0.,24.0,0.,24.0,0.,24.0
1980-11-16 03:57:08.500 ,4,0,0.,24.0,0.,24.0,0.,24.0,0.,24.0
1980-11-16 03:57:32.500 ,3,1,0.,24.0,0.,24.0,0.,24.0,0.,24.0
1980-11-16 03:57:56.500 ,3,0,0.,24.0,0.,24.0,0.,24.0,0.,24.0
1980-11-16 03:58:20.500 ,2,1,0.,24.0,0.,24.0,0.,24.0,0.,24.0
1980-11-16 03:58:44.500 ,2,0,0.,24.0,0.,24.0,0.,24.0,0.,24.0
1980-11-16 03:59:08.500 ,1,1,0.,24.0,0.,24.0,0.,24.0,0.,24.0
1980-11-16 03:59:32.500 ,1,0,0.,24.0,0.,24.0,0.,24.0,0.,24.0
1980-11-16 03:59:56.500 ,0,1,0.,24.0,0.,24.0,0.,24.0,0.,24.0
1980-11-16 04:00:20.500 ,0,0,0.,24.0,0.,24.0,0.,24.0,0.,24.0
1980-11-16 04:00:44.500 ,0,1,0.,24.0,0.,24.0,0.,24.0,0.,24.0
1980-11-16 04:01:08.500 ,0,0,0.,24.0,0.,24.0,0.,24.0,0.,24.0
1980-11-16 04:01:32.500 ,1,1,0.,24.0,0.,24.0,0.,24.0,0.,24.0
1980-11-16 04:01:56.500 ,1,0,0.,24.0,0.,24.0,0.,24.0,0.,24.0
1980-11-16 04:02:20.500 ,2,1,0.,24.0,0.,24.0,0.,24.0,0.,24.0
1980-11-16 04:02:44.500 ,2,0,0.,24.0,0.,24.0,0.,24.0,0.,24.0
1980-11-16 04:03:08.500 ,3,1,0.,24.0,0.,24.0,0.,24.0,0.,24.0
1980-11-16 04:03:32.500 ,3,0,0.,24.0,0.,24.0,0.,24.0,0.,24.0
1980-11-16 04:03:56.500 ,4,1,0.,24.0,0.,24.0,0.,24.0,0.,24.0
1980-11-16 04:04:20.500 ,4,0,0.,24.0,0.,24.0,0.,24.0,0.,24.0
1980-11-16 04:04:44.500 ,5,1,0.,24.0,0.,24.0,0.,24.0,0.,24.0
1980-11-16 04:05:08.500 ,5,0,0.,24.0,0.,24.0,0.,24.0,0.,24.0
1980-11-16 04:05:32.500 ,6,1,0.,24.0,0.,24.0,0.,24.0,0.,24.0
1980-11-16 04:05:56.500 ,6,0,0.,24.0,0.,24.0,0.,24.0,0.,24.0
1980-11-16 04:06:20.500 ,7,1,0.,24.0,0.,24.0,0.,24.0,0.,24.0
1980-11-16 04:06:44.500 ,7,0,0.,24.0,0.,24.0,0.,24.0,0.,24.0
1980-11-16 04:07:08.500 ,7,1,0.,24.0,0.,24.0,0.,24.0,0.,24.0
1980-11-16 04:07:32.500 ,7,0,0.,24.0,0.,24.0,0.,24.0,0.,24.0
1980-11-16 04:07:56.500 ,6,1,0.,24.0,0.,24.0,0.,24.0,0.,24.0
1980-11-16 04:08:20.500 ,6,0,0.,24.0,0.,24.0,0.,24.0,0.,24.0
1980-11-16 04:08:44.500 ,5,1,0.,24.0,0.,24.0,0.,24.0,0.,24.0
1980-11-16 04:09:08.500 ,5,0,0.,24.0,0.,24.0,0.,24.0,0.,24.0
1980-11-16 04:09:32.500 ,4,1,0.,24.0,0.,24.0,0.,24.0,0.,24.0
1980-11-16 04:09:56.500 ,4,0,0.,24.0,0.,24.0,0.,24.0,0.,24.0
1980-11-16 04:10:20.500 ,3,1,1.,24.0,0.,24.0,0.,24.0,0.,24.0
1980-11-16 04:10:44.500 ,3,0,0.,24.0,0.,24.0,0.,24.0,0.,24.0
1980-11-16 04:11:08.500 ,2,1,0.,24.0,0.,24.0,0.,24.0,0.,24.0
1980-11-16 04:11:32.500 ,2,0,0.,24.0,0.,24.0,0.,24.0,0.,24.0
1980-11-16 04:12:44.500 ,0,0,0.,24.0,0.,24.0,0.,24.0,0.,24.0
1980-11-16 04:13:08.500 ,0,0,0.,24.0,0.,24.0,0.,24.0,0.,24.0
1980-11-16 04:13:32.500 ,0,1,0.,24.0,0.,24.0,0.,24.0,0.,24.0
1980-11-16 04:13:56.500 ,0,0,0.,24.0,0.,24.0,0.,24.0,0.,24.0
1980-11-16 04:14:20.500 ,1,1,0.,24.0,0.,24.0,0.,24.0,0.,24.0
1980-11-16 04:14:44.500 ,1,0,0.,24.0,0.,24.0,0.,24.0,0.,24.0
1980-11-16 04:15:08.500 ,2,1,0.,24.0,0.,24.0,0.,24.0,0.,24.0
1980-11-16 04:15:32.500 ,2,0,0.,24.0,0.,24.0,0.,24.0,0.,24.0
1980-11-16 04:15:56.500 ,3,1,0.,24.0,0.,24.0,0.,24.0,0.,24.0
1980-11-16 04:16:20.500 ,3,0,0.,24.0,0.,24.0,0.,24.0,0.,24.0
1980-11-16 04:16:44.500 ,4,1,0.,24.0,0.,24.0,0.,24.0,0.,24.0
1980-11-16 04:17:08.500 ,4,0,0.,24.0,0.,24.0,0.,24.0,0.,24.0
1980-11-16 04:17:32.500 ,5,1,0.,24.0,0.,24.0,0.,24.0,0.,24.0
1980-11-16 04:17:56.500 ,5,0,0.,24.0,0.,24.0,0.,24.0,0.,24.0
1980-11-16 04:18:20.500 ,6,1,0.,24.0,0.,24.0,0.,24.0,0.,24.0
1980-11-16 04:18:44.500 ,6,0,0.,24.0,0.,24.0,0.,24.0,0.,24.0
1980-11-16 04:19:08.500 ,7,1,0.,24.0,0.,24.0,0.,24.0,0.,24.0
1980-11-16 04:19:32.500 ,7,0,0.,24.0,0.,24.0,0.,24.0,0.,24.0
1980-11-16 04:19:56.500 ,7,1,0.,24.0,0.,24.0,0.,24.0,0.,24.0
1980-11-16 04:20:20.500 ,7,0,0.,24.0,0.,24.0,0.,24.0,0.,24.0
1980-11-16 04:20:44.500 ,6,1,0.,24.0,0.,24.0,0.,24.0,0.,24.0
1980-11-16 04:21:08.500 ,6,0,0.,24.0,0.,24.0,0.,24.0,0.,24.0
1980-11-16 04:21:32.500 ,5,1,0.,24.0,0.,24.0,0.,24.0,0.,24.0
1980-11-16 04:21:56.500 ,5,0,0.,24.0,0.,24.0,0.,24.0,0.,24.0
1980-11-16 04:22:20.500 ,4,1,0.,24.0,0.,24.0,0.,24.0,0.,24.0
1980-11-16 04:22:44.500 ,4,0,0.,24.0,0.,24.0,0.,24.0,0.,24.0
1980-11-16 04:23:08.500 ,3,1,0.,24.0,0.,24.0,0.,24.0,0.,24.0
1980-11-16 04:23:32.500 ,3,0,0.,24.0,0.,24.0,0.,24.0,0.,24.0
1980-11-16 04:23:56.500 ,2,1,0.,24.0,0.,24.0,0.,24.0,0.,24.0
1980-11-16 04:24:20.500 ,2,0,0.,24.0,0.,24.0,0.,24.0,0.,24.0
1980-11-16 04:24:44.500 ,1,1,0.,24.0,0.,24.0,0.,24.0,0.,24.0
1980-11-16 04:25:08.500 ,1,0,0.,24.0,0.,24.0,0.,24.0,0.,24.0
1980-11-16 04:25:32.500 ,0,1,0.,24.0,0.,24.0,0.,24.0,0.,24.0
1980-11-16 04:25:56.500 ,0,0,0.,24.0,0.,24.0,0.,24.0,0.,24.0
1980-11-16 04:26:20.500 ,0,1,0.,24.0,0.,24.0,0.,24.0,0.,24.0
1980-11-16 04:26:44.500 ,0,0,0.,24.0,0.,24.0,0.,24.0,0.,24.0
1980-11-16 04:27:08.500 ,1,1,0.,24.0,0.,24.0,0.,24.0,0.,24.0
1980-11-16 04:27:32.500 ,1,0,0.,24.0,0.,24.0,0.,24.0,0.,24.0
1980-11-16 04:27:56.500 ,2,1,0.,24.0,0.,24.0,0.,24.0,0.,24.0
1980-11-16 04:28:20.500 ,2,0,0.,24.0,0.,24.0,0.,24.0,0.,24.0
1980-11-16 04:28:44.500 ,3,1,0.,24.0,0.,24.0,0.,24.0,0.,24.0
1980-11-16 04:29:08.500 ,3,0,0.,24.0,0.,24.0,0.,24.0,0.,24.0
1980-11-16 04:29:32.500 ,4,1,0.,24.0,0.,24.0,0.,24.0,0.,24.0
1980-11-16 04:29:56.500 ,4,0,0.,24.0,0.,24.0,0.,24.0,0.,24.0
1980-11-16 04:30:20.500 ,5,1,0.,24.0,0.,24.0,0.,24.0,0.,24.0
1980-11-16 04:30:44.500 ,5,0,0.,24.0,0.,24.0,0.,24.0,0.,24.0
1980-11-16 04:31:08.500 ,6,1,0.,24.0,0.,24.0,0.,24.0,0.,24.0
1980-11-16 04:31:32.500 ,6,0,0.,24.0,0.,24.0,0.,24.0,0.,24.0
1980-11-16 04:31:56.500 ,7,1,1.,24.0,0.,24.0,0.,24.0,0.,24.0
1980-11-16 04:32:20.500 ,7,0,0.,24.0,0.,24.0,0.,24.0,0.,24.0
1980-11-16 04:32:44.500 ,7,1,0.,24.0,0.,24.0,0.,24.0,0.,24.0
1980-11-16 04:33:08.500 ,7,0,0.,24.0,0.,24.0,0.,24.0,0.,24.0
1980-11-16 04:33:32.500 ,6,1,0.,24.0,0.,24.0,0.,24.0,0.,24.0
1980-11-16 04:33:56.500 ,6,0,0.,24.0,0.,24.0,0.,24.0,0.,24.0
1980-11-16 04:34:20.500 ,5,1,0.,24.0,0.,24.0,0.,24.0,0.,24.0
1980-11-16 04:34:44.500 ,5,0,0.,24.0,0.,24.0,0.,24.0,0.,24.0
1980-11-16 04:35:08.500 ,4,1,0.,24.0,0.,24.0,0.,24.0,0.,24.0
1980-11-16 04:35:32.500 ,4,0,0.,24.0,0.,24.0,0.,24.0,0.,24.0
1980-11-16 04:35:56.500 ,3,1,0.,24.0,0.,24.0,0.,24.0,0.,24.0
1980-11-16 04:36:20.500 ,3,0,0.,24.0,0.,24.0,0.,24.0,0.,24.0
1980-11-16 04:36:44.500 ,2,1,0.,24.0,0.,24.0,0.,24.0,0.,24.0
1980-11-16 04:37:08.500 ,2,0,0.,24.0,0.,24.0,0.,24.0,0.,24.0
1980-11-16 04:37:32.500 ,1,1,0.,24.0,0.,24.0,0.,24.0,0.,24.0
1980-11-16 04:37:56.500 ,1,0,0.,24.0,0.,24.0,0.,24.0,0.,24.0
1980-11-16 04:38:20.500 ,0,1,0.,24.0,0.,24.0,0.,24.0,0.,24.0
1980-11-16 04:38:44.500 ,0,0,0.,24.0,0.,24.0,0.,24.0,0.,24.0
1980-11-16 04:39:08.500 ,0,1,0.,24.0,0.,24.0,0.,24.0,0.,24.0
1980-11-16 04:39:32.500 ,0,0,0.,24.0,0.,24.0,0.,24.0,0.,24.0
1980-11-16 04:39:56.500 ,1,1,0.,24.0,0.,24.0,0.,24.0,0.,24.0
1980-11-16 04:40:20.500 ,1,0,0.,24.0,0.,24.0,0.,24.0,0.,24.0
1980-11-16 04:40:44.500 ,2,1,0.,24.0,0.,24.0,0.,24.0,0.,24.0
1980-11-16 04:41:08.500 ,2,0,0.,24.0,0.,24.0,0.,24.0,0.,24.0
1980-11-16 04:41:32.500 ,3,1,0.,24.0,0.,24.0,0.,24.0,0.,24.0
1980-11-16 04:41:56.500 ,3,0,0.,24.0,0.,24.0,0.,24.0,0.,24.0
1980-11-16 04:42:20.500 ,4,1,0.,24.0,0.,24.0,0.,24.0,0.,24.0
1980-11-16 04:42:44.500 ,4,0,0.,24.0,0.,24.0,0.,24.0,0.,24.0
1980-11-16 04:43:08.500 ,5,1,0.,24.0,0.,24.0,0.,24.0,0.,24.0
1980-11-16 04:43:32.500 ,5,0,0.,24.0,0.,24.0,0.,24.0,0.,24.0
1980-11-16 04:43:56.500 ,6,1,0.,24.0,0.,24.0,0.,24.0,0.,24.0
1980-11-16 04:44:20.500 ,6,0,0.,24.0,0.,24.0,0.,24.0,0.,24.0
1980-11-16 04:44:44.500 ,7,1,0.,24.0,0.,24.0,0.,24.0,0.,24.0
1980-11-16 04:45:08.500 ,7,0,0.,24.0,0.,24.0,0.,24.0,0.,24.0
1980-11-16 04:45:32.500 ,7,1,0.,24.0,0.,24.0,0.,24.0,0.,24.0
1980-11-16 04:45:56.500 ,7,0,0.,24.0,0.,24.0,0.,24.0,0.,24.0
1980-11-16 04:46:20.500 ,6,1,0.,24.0,0.,24.0,0.,24.0,0.,24.0
1980-11-16 04:46:44.500 ,6,0,0.,24.0,0.,24.0,0.,24.0,0.,24.0
1980-11-16 04:47:08.500 ,5,1,0.,24.0,0.,24.0,0.,24.0,0.,24.0
1980-11-16 04:47:32.500 ,5,0,0.,24.0,0.,24.0,0.,24.0,0.,24.0
1980-11-16 04:47:56.500 ,4,1,0.,24.0,0.,24.0,0.,24.0,0.,24.0
1980-11-16 04:48:20.500 ,4,0,0.,24.0,0.,24.0,0.,24.0,0.,24.0
1980-11-16 04:48:44.500 ,3,1,0.,24.0,0.,24.0,0.,24.0,0.,24.0
1980-11-16 04:49:08.500 ,3,0,0.,24.0,0.,24.0,0.,24.0,0.,24.0
1980-11-16 04:49:32.500 ,2,1,0.,24.0,0.,24.0,0.,24.0,0.,24.0
1980-11-16 04:49:56.500 ,2,0,0.,24.0,0.,24.0,0.,24.0,0.,24.0
1980-11-16 04:50:20.500 ,1,1,0.,24.0,0.,24.0,0.,24.0,0.,24.0
1980-11-16 04:50:44.500 ,1,0,0.,24.0,0.,24.0,0.,24.0,0.,24.0
1980-11-16 04:51:08.500 ,0,1,0.,24.0,0.,24.0,0.,24.0,0.,24.0
1980-11-16 04:51:32.500 ,0,0,0.,24.0,0.,24.0,0.,24.0,0.,24.0
1980-11-16 04:51:56.500 ,0,1,0.,24.0,0.,24.0,0.,24.0,0.,24.0
1980-11-16 04:52:20.500 ,0,0,0.,24.0,0.,24.0,0.,24.0,0.,24.0
1980-11-16 04:52:44.500 ,1,1,0.,24.0,0.,24.0,0.,24.0,0.,24.0
1980-11-16 04:53:08.500 ,1,0,0.,24.0,0.,24.0,0.,24.0,0.,24.0
1980-11-16 04:53:32.500 ,2,1,0.,24.0,0.,24.0,0.,24.0,0.,24.0
1980-11-16 04:53:56.500 ,2,0,0.,24.0,0.,24.0,0.,24.0,0.,24.0
1980-11-16 04:54:20.500 ,3,1,0.,24.0,0.,24.0,0.,24.0,0.,24.0
1980-11-16 04:54:44.500 ,3,0,0.,24.0,0.,24.0,0.,24.0,0.,24.0
1980-11-16 04:55:08.500 ,4,1,0.,24.0,0.,24.0,0.,24.0,0.,24.0
1980-11-16 04:55:32.500 ,4,0,0.,24.0,0.,24.0,0.,24.0,0.,24.0
1980-11-16 04:55:56.500 ,5,1,0.,24.0,0.,24.0,0.,24.0,0.,24.0
1980-11-16 04:56:20.500 ,5,0,0.,24.0,0.,24.0,0.,24.0,0.,24.0
1980-11-16 04:56:44.500 ,6,1,0.,24.0,0.,24.0,0.,24.0,0.,24.0
1980-11-16 04:57:08.500 ,6,0,0.,24.0,0.,24.0,0.,24.0,0.,24.0
1980-11-16 04:57:32.500 ,7,1,0.,24.0,0.,24.0,0.,24.0,0.,24.0
1980-11-16 04:57:56.500 ,7,0,0.,24.0,0.,24.0,0.,24.0,0.,24.0
1980-11-16 04:58:20.500 ,7,1,0.,24.0,0.,24.0,0.,24.0,0.,24.0
1980-11-16 04:58:44.500 ,7,0,0.,24.0,0.,24.0,0.,24.0,0.,24.0
1980-11-16 04:59:08.500 ,6,1,0.,24.0,0.,24.0,0.,24.0,0.,24.0
1980-11-16 04:59:32.500 ,6,0,0.,24.0,0.,24.0,0.,24.0,0.,24.0
1980-11-16 04:59:56.500 ,5,1,0.,24.0,0.,24.0,0.,24.0,0.,24.0
1980-11-16 05:00:20.500 ,5,0,0.,24.0,0.,24.0,0.,24.0,0.,24.0
1980-11-16 05:00:44.500 ,4,1,0.,24.0,0.,24.0,0.,24.0,0.,24.0
1980-11-16 05:01:08.500 ,4,0,0.,24.0,0.,24.0,0.,24.0,0.,24.0
1980-11-16 05:01:32.500 ,3,1,0.,24.0,0.,24.0,0.,24.0,0.,24.0
1980-11-16 05:01:56.500 ,3,0,0.,24.0,0.,24.0,0.,24.0,0.,24.0
1980-11-16 05:02:20.500 ,2,1,0.,24.0,0.,24.0,0.,24.0,0.,24.0
1980-11-16 05:02:44.500 ,2,0,0.,24.0,0.,24.0,0.,24.0,0.,24.0
1980-11-16 05:03:08.500 ,1,1,0.,24.0,0.,24.0,0.,24.0,0.,24.0
1980-11-16 05:03:32.500 ,1,0,0.,24.0,0.,24.0,0.,24.0,0.,24.0
1980-11-16 05:03:56.500 ,0,1,0.,24.0,0.,24.0,0.,24.0,0.,24.0
1980-11-16 05:04:20.500 ,0,0,0.,24.0,0.,24.0,0.,24.0,0.,24.0
1980-11-16 05:05:32.500 ,0,0,0.,24.0,0.,24.0,0.,24.0,0.,24.0
1980-11-16 05:05:56.500 ,0,0,0.,24.0,0.,24.0,0.,24.0,0.,24.0
1980-11-16 05:06:20.500 ,2,1,0.,24.0,0.,24.0,0.,24.0,0.,24.0
1980-11-16 05:06:44.500 ,2,0,0.,24.0,0.,24.0,0.,24.0,0.,24.0
1980-11-16 05:07:08.500 ,3,1,0.,24.0,0.,24.0,0.,24.0,0.,24.0
1980-11-16 05:07:32.500 ,3,0,0.,24.0,0.,24.0,0.,24.0,0.,24.0
1980-11-16 05:07:56.500 ,4,1,0.,24.0,0.,24.0,0.,24.0,0.,24.0
1980-11-16 05:08:20.500 ,4,0,0.,24.0,0.,24.0,0.,24.0,0.,24.0
1980-11-16 05:08:44.500 ,5,1,0.,24.0,0.,24.0,0.,24.0,0.,24.0
1980-11-16 05:09:08.500 ,5,0,0.,24.0,0.,24.0,0.,24.0,0.,24.0
1980-11-16 05:09:32.500 ,6,1,0.,24.0,0.,24.0,0.,24.0,0.,24.0
1980-11-16 05:09:56.500 ,6,0,0.,24.0,0.,24.0,0.,24.0,0.,24.0
1980-11-16 05:10:20.500 ,7,1,0.,24.0,0.,24.0,0.,24.0,0.,24.0
1980-11-16 05:10:44.500 ,7,0,0.,24.0,0.,24.0,0.,24.0,0.,24.0
1980-11-16 05:11:08.500 ,7,1,0.,24.0,0.,24.0,0.,24.0,0.,24.0
1980-11-16 05:11:32.500 ,7,0,0.,24.0,0.,24.0,0.,24.0,0.,24.0
1980-11-16 05:11:56.500 ,6,1,0.,24.0,0.,24.0,0.,24.0,0.,24.0
1980-11-16 05:12:20.500 ,6,0,0.,24.0,0.,24.0,0.,24.0,0.,24.0
1980-11-16 05:12:44.500 ,5,1,0.,24.0,0.,24.0,0.,24.0,0.,24.0
1980-11-16 05:13:08.500 ,0,0,0.,24.0,0.,24.0,0.,24.0,0.,24.0
1980-11-16 05:13:49.300 ,0,0,,0,,0,,0,,0
1980-11-16 05:13:56.500 ,0,0,1.,24.0,0.,24.0,0.,24.0,0.,24.0
1980-11-16 05:14:20.500 ,3,1,0.,24.0,0.,24.0,0.,24.0,0.,24.0
1980-11-16 05:14:44.500 ,3,0,0.,24.0,0.,24.0,0.,24.0,0.,24.0
1980-11-16 05:15:08.500 ,2,1,0.,24.0,0.,24.0,0.,24.0,0.,24.0
1980-11-16 05:15:32.500 ,2,0,0.,24.0,0.,24.0,0.,24.0,0.,24.0
1980-11-16 05:15:56.500 ,1,1,0.,24.0,0.,24.0,0.,24.0,0.,24.0
1980-11-16 05:16:20.500 ,1,0,0.,24.0,0.,24.0,0.,24.0,0.,24.0
1980-11-16 05:16:44.500 ,0,1,0.,24.0,0.,24.0,0.,24.0,0.,24.0
1980-11-16 05:17:08.500 ,0,0,0.,24.0,0.,24.0,0.,24.0,0.,24.0
1980-11-16 05:17:32.500 ,0,1,0.,24.0,0.,24.0,0.,24.0,0.,24.0
1980-11-16 05:17:56.500 ,0,0,0.,24.0,0.,24.0,0.,24.0,0.,24.0
1980-11-16 05:18:20.500 ,1,1,0.,24.0,0.,24.0,0.,24.0,0.,24.0
1980-11-16 05:18:44.500 ,1,0,0.,24.0,0.,24.0,0.,24.0,0.,24.0
1980-11-16 05:19:08.500 ,2,1,0.,24.0,0.,24.0,0.,24.0,0.,24.0
1980-11-16 05:19:32.500 ,2,0,0.,24.0,0.,24.0,0.,24.0,0.,24.0
1980-11-16 05:19:56.500 ,0,0,0.,24.0,0.,24.0,0.,24.0,0.,24.0
1980-11-16 05:20:20.500 ,0,0,0.,24.0,0.,24.0,0.,24.0,0.,24.0
1980-11-16 05:20:44.500 ,4,1,0.,24.0,0.,24.0,0.,24.0,0.,24.0
1980-11-16 05:21:08.500 ,4,0,0.,24.0,0.,24.0,0.,24.0,0.,24.0
1980-11-16 05:21:32.500 ,5,1,0.,24.0,0.,24.0,0.,24.0,0.,24.0
1980-11-16 05:21:56.500 ,5,0,0.,24.0,0.,24.0,0.,24.0,0.,24.0
1980-11-16 05:22:20.500 ,6,1,0.,24.0,0.,24.0,0.,24.0,0.,24.0
1980-11-16 05:22:44.500 ,6,0,0.,24.0,0.,24.0,0.,24.0,0.,24.0
1980-11-16 05:23:08.500 ,7,1,0.,24.0,0.,24.0,0.,24.0,0.,24.0
1980-11-16 05:23:32.500 ,7,0,0.,24.0,0.,24.0,0.,24.0,0.,24.0
1980-11-16 05:23:56.500 ,7,1,0.,24.0,0.,24.0,0.,24.0,0.,24.0
1980-11-16 05:24:20.500 ,7,0,0.,24.0,0.,24.0,0.,24.0,0.,24.0
1980-11-16 05:24:44.500 ,6,1,0.,24.0,0.,24.0,0.,24.0,0.,24.0
1980-11-16 05:25:08.500 ,6,0,0.,24.0,0.,24.0,0.,24.0,0.,24.0
1980-11-16 05:25:32.500 ,5,1,0.,24.0,0.,24.0,0.,24.0,0.,24.0
1980-11-16 05:25:56.500 ,5,0,0.,24.0,0.,24.0,0.,24.0,0.,24.0
1980-11-16 05:26:20.500 ,4,1,0.,24.0,0.,24.0,0.,24.0,0.,24.0
1980-11-16 05:26:44.500 ,4,0,0.,24.0,0.,24.0,0.,24.0,0.,24.0
1980-11-16 05:27:08.500 ,3,1,0.,24.0,0.,24.0,0.,24.0,0.,24.0
1980-11-16 05:27:32.500 ,3,0,0.,24.0,0.,24.0,0.,24.0,0.,24.0
1980-11-16 05:27:56.500 ,2,1,0.,24.0,0.,24.0,0.,24.0,0.,24.0
1980-11-16 05:28:20.500 ,2,0,0.,24.0,0.,24.0,0.,24.0,0.,24.0
1980-11-16 05:28:44.500 ,1,1,0.,24.0,0.,24.0,0.,24.0,0.,24.0
1980-11-16 05:29:08.500 ,1,0,0.,24.0,0.,24.0,0.,24.0,0.,24.0
1980-11-16 05:29:32.500 ,0,1,0.,24.0,0.,24.0,0.,24.0,0.,24.0
1980-11-16 05:29:56.500 ,0,0,0.,24.0,0.,24.0,0.,24.0,0.,24.0
1980-11-16 05:30:20.500 ,0,1,0.,24.0,0.,24.0,0.,24.0,0.,24.0
1980-11-16 05:30:44.500 ,0,0,0.,24.0,0.,24.0,0.,24.0,0.,24.0
1980-11-16 05:31:08.500 ,1,1,0.,24.0,0.,24.0,0.,24.0,0.,24.0
1980-11-16 05:31:32.500 ,1,0,0.,24.0,0.,24.0,0.,24.0,0.,24.0
1980-11-16 05:31:56.500 ,2,1,0.,24.0,0.,24.0,0.,24.0,0.,24.0
1980-11-16 05:32:20.500 ,2,0,0.,24.0,0.,24.0,0.,24.0,0.,24.0
1980-11-16 05:32:44.500 ,3,1,0.,24.0,0.,24.0,0.,24.0,0.,24.0
1980-11-16 05:33:08.500 ,3,0,0.,24.0,0.,24.0,0.,24.0,0.,24.0
1980-11-16 05:36:44.500 ,0,0,0.,24.0,0.,24.0,0.,24.0,0.,24.0
1980-11-16 05:37:08.500 ,0,0,0.,24.0,0.,24.0,0.,24.0,0.,24.0
1980-11-16 05:37:32.500 ,6,1,0.,24.0,0.,24.0,0.,24.0,0.,24.0
1980-11-16 05:37:56.500 ,6,0,0.,24.0,0.,24.0,0.,24.0,0.,24.0
1980-11-16 05:38:20.500 ,5,1,0.,24.0,0.,24.0,0.,24.0,0.,24.0
1980-11-16 05:38:44.500 ,5,0,0.,24.0,0.,24.0,0.,24.0,0.,24.0
1980-11-16 05:39:08.500 ,4,1,0.,24.0,0.,24.0,0.,24.0,0.,24.0